This demonstration page uses our WeatherBlox Daily Observations layout. Learn more.

Hourly Observations for June 15, 2016

Temp ( °F °C ) Dew Point ( °F °C ) Humidity (%) Winds ( mph kmh ) Pressure ( in mb ) Visibility ( mi km ) Precip ( " mm )
12:15 am 00:15 Clear 71 21.6 50 10.1 48 48 SW 6 9 29.68 1005 10 16.0934 0 0
12:35 am 00:35 Clear 70 21.2 50 10.1 49 49 SW 5 7 29.68 1005 10 16.0934 0 0
12:55 am 00:55 Clear 70 21.2 50 10 49 49 SSW 6 9 29.68 1005 10 16.0934 0 0
1:15 am 01:15 Clear 69 20.8 50 9.9 50 50 SSW 6 9 29.71 1006 10 16.0934 0 0
1:35 am 01:35 Clear 69 20.5 50 10 51 51 SW 7 11 29.71 1006 10 16.0934 0 0
1:55 am 01:55 Clear 67 19.7 50 10 54 54 SSW 7 11 29.71 1006 10 16.0934 0 0
2:15 am 02:15 Clear 66 19.1 51 10.3 57 57 SW 6 9 29.71 1006 10 16.0934 0 0
2:35 am 02:35 Clear 67 19.5 50 10.1 55 55 SW 8 13 29.71 1006 10 16.0934 0 0
2:55 am 02:55 Clear 67 19.4 50 10 55 55 SSW 7 11 29.71 1006 10 16.0934 0 0
3:15 am 03:15 Clear 66 18.8 50 10 57 57 SW 7 11 29.71 1006 10 16.0934 0 0
3:35 am 03:35 Clear 67 19.6 49 9.2 51 51 SW 7 11 29.74 1007 10 16.0934 0 0
3:55 am 03:55 Clear 68 19.8 48 8.9 50 50 SW 7 11 29.74 1007 10 16.0934 0 0
4:35 am 04:35 Clear 68 20 47 8.5 48 48 SW 7 11 29.74 1007 10 16.0934 0 0
4:55 am 04:55 Clear 67 19.3 47 8.5 50 50 SW 6 9 29.74 1007 10 16.0934 0 0
5:15 am 05:15 Clear 67 19.7 47 8.5 49 49 WSW 6 9 29.74 1007 10 16.0934 0 0
5:35 am 05:35 Clear 69 20.3 47 8.6 47 47 WSW 7 11 29.74 1007 10 16.0934 0 0
5:55 am 05:55 Clear 69 20.5 48 9 48 48 WSW 7 11 29.74 1007 10 16.0934 0 0
6:15 am 06:15 Sunny 69 20.7 50 9.9 50 50 WSW 8 13 29.77 1008 10 16.0934 0 0
6:35 am 06:35 Sunny 69 20.6 51 10.6 53 53 WSW 9 15 29.77 1008 10 16.0934 0 0
6:55 am 06:55 Sunny 70 20.9 53 11.5 55 55 WSW 9 15 29.77 1008 10 16.0934 0 0
7:15 am 07:15 Sunny 70 21.1 53 11.9 56 56 WSW 8 13 29.77 1008 10 16.0934 0 0
7:35 am 07:35 Sunny 72 22.1 56 13.6 59 59 WSW 8 13 29.74 1007 10 16.0934 0 0
7:55 am 07:55 Sunny 73 23 58 14.6 59 59 WSW 8 13 29.74 1007 10 16.0934 0 0
8:15 am 08:15 Sunny 75 23.8 60 15.6 60 60 WSW 8 13 29.77 1008 10 16.0934 0 0
8:35 am 08:35 Sunny 76 24.6 61 16.1 59 59 WSW 8 13 29.77 1008 10 16.0934 0 0
8:55 am 08:55 Sunny 79 25.9 62 16.9 58 58 WSW 7 11 29.74 1007 10 16.0934 0 0
9:15 am 09:15 Sunny 80 26.7 63 17.1 56 56 WSW 8 13 29.74 1007 10 16.0934 0 0
9:35 am 09:35 Sunny 81 27.3 63 17.4 55 55 SW 9 15 29.74 1007 10 16.0934 0 0
9:55 am 09:55 Sunny 83 28.2 64 17.7 53 53 WSW 8 13 29.74 1007 10 16.0934 0 0
10:15 am 10:15 Sunny 85 29.5 64 17.9 50 50 SW 7 11 29.71 1006 10 16.0934 0 0
10:35 am 10:35 Sunny 87 30.5 64 17.5 46 46 SW 12 19 29.71 1006 10 16.0934 0 0
10:55 am 10:55 Sunny 88 31.1 61 16.3 41 41 SW 7 11 29.71 1006 10 16.0934 0 0
11:15 am 11:15 Sunny 90 32.2 59 15 35 35 SSW 14 22 29.71 1006 10 16.0934 0 0
11:35 am 11:35 Sunny 90 32.1 60 15.4 36 36 SW 10 17 29.71 1006 10 16.0934 0 0
11:55 am 11:55 Sunny 90 32.3 59 15.2 36 36 SSW 10 17 29.71 1006 10 16.0934 0 0
12:15 pm 12:15 Sunny 91 33 58 14.7 33 33 SSW 14 22 29.71 1006 10 16.0934 0 0
12:35 pm 12:35 Sunny 93 33.7 58 14.3 31 31 SSW 9 15 29.68 1005 10 16.0934 0 0
12:55 pm 12:55 Sunny 94 34.2 52 11.3 25 25 SSW 12 19 29.68 1005 10 16.0934 0 0
1:15 pm 13:15 Sunny 94 34.5 51 10.5 23 23 S 12 19 29.68 1005 10 16.0934 0 0
1:35 pm 13:35 Sunny 94 34.5 51 10.3 23 23 SSE 12 19 29.68 1005 10 16.0934 0 0
1:55 pm 13:55 Sunny 94 34.7 48 9 21 21 SSE 12 19 29.65 1004 10 16.0934 0 0
2:15 pm 14:15 Sunny 95 34.8 49 9.6 21 21 SSE 9 15 29.65 1004 10 16.0934 0 0
2:35 pm 14:35 Sunny 95 34.9 51 10.6 23 23 SE 10 17 29.65 1004 10 16.0934 0 0
2:55 pm 14:55 Sunny 96 35.5 47 8.5 19 19 SSE 12 19 29.62 1003 10 16.0934 0 0
3:15 pm 15:15 Sunny 96 35.5 48 9.1 20 20 S 15 24 29.62 1003 10 16.0934 0 0
3:35 pm 15:35 Sunny 96 35.8 45 7.4 17 17 S 13 20 29.62 1003 10 16.0934 0 0
3:55 pm 15:55 Sunny 96 35.8 47 8.1 18 18 SSE 10 17 29.62 1003 10 16.0934 0 0
4:15 pm 16:15 Sunny 97 36 46 8 18 18 SSE 15 24 29.62 1003 10 16.0934 0 0
4:35 pm 16:35 Sunny 97 36 46 7.7 17 17 SE 14 22 29.62 1003 10 16.0934 0 0
4:55 pm 16:55 Sunny 97 36.2 48 8.7 18 18 SE 10 17 29.59 1002 10 16.0934 0 0
5:15 pm 17:15 Sunny 97 36.3 50 10.2 20 20 SE 17 28 29.56 1001 10 16.0934 0 0
5:35 pm 17:35 Sunny 97 36.2 51 10.5 21 21 ESE 13 20 29.59 1002 10 16.0934 0 0
5:55 pm 17:55 Sunny 97 36.1 51 10.5 21 21 ESE 12 19 29.59 1002 10 16.0934 0 0
6:15 pm 18:15 Sunny 97 36 53 11.5 23 23 ESE 15 24 29.59 1002 10 16.0934 0 0
6:35 pm 18:35 Sunny 96 35.8 51 10.7 22 22 ESE 16 26 29.59 1002 10 16.0934 0 0
6:55 pm 18:55 Sunny 96 35.3 52 10.9 23 23 ESE 16 26 29.59 1002 10 16.0934 0 0
7:15 pm 19:15 Sunny 95 34.8 54 12.2 25 25 ESE 15 24 29.59 1002 10 16.0934 0 0
7:35 pm 19:35 Sunny 92 33.4 59 14.9 33 33 ESE 17 28 29.59 1002 10 16.0934 0 0
7:55 pm 19:55 Sunny 90 32.3 57 13.8 32 32 ESE 13 20 29.59 1002 10 16.0934 0 0
8:15 pm 20:15 Sunny 88 31.3 57 14 35 35 ESE 13 20 29.62 1003 10 16.0934 0 0
8:35 pm 20:35 Sunny 87 30.6 58 14.5 38 38 ESE 13 20 29.62 1003 10 16.0934 0 0
8:55 pm 20:55 Sunny 85 29.5 59 14.9 41 41 ESE 12 19 29.62 1003 10 16.0934 0 0
9:15 pm 21:15 Clear 84 28.8 58 14.7 42 42 ESE 13 20 29.65 1004 10 16.0934 0 0
9:35 pm 21:35 Clear 84 28.7 58 14.5 42 42 ESE 15 24 29.65 1004 10 16.0934 0 0
9:55 pm 21:55 Clear 83 28.1 58 14.7 44 44 SE 13 20 29.68 1005 10 16.0934 0 0
10:15 pm 22:15 Clear 82 27.6 61 15.9 49 49 SE 21 33 29.71 1006 10 16.0934 0 0
10:35 pm 22:35 Clear 79 26.1 60 15.5 52 52 SSE 15 24 29.74 1007 10 16.0934 0 0
10:55 pm 22:55 Clear 77 25.1 58 14.6 52 52 SSE 16 26 29.77 1008 10 16.0934 0 0
11:15 pm 23:15 Clear 76 24.3 57 14 53 53 SSE 14 22 29.74 1007 10 16.0934 0 0
11:35 pm 23:35 Clear 74 23.5 58 14.2 56 56 SSE 9 15 29.74 1007 10 16.0934 0 0
11:55 pm 23:55 Clear 73 22.9 57 14 57 57 SSE 9 15 29.74 1007 10 16.0934 0 0

Powered by AerisWeather